Time,TemperatureF,DewpointF,PressureIn,WindDirection,WindDirectionDegrees,WindSpeedMPH,WindSpeedGustMPH,Humidity,HourlyPrecipIn,Conditions,Clouds,dailyrainin,SoftwareType,DateUTC
2013-09-03 00:04:00,67.7,61.3,29.93,NE,40,0.0,0.0,80,0.00,,---,0.00,VWS V14.01,2013-09-03 05:04:00,
2013-09-03 00:09:00,67.7,61.7,29.94,NE,40,1.0,2.0,81,0.00,,---,0.00,VWS V14.01,2013-09-03 05:09:00,
2013-09-03 00:14:00,67.6,61.6,29.94,NE,40,0.0,2.0,81,0.00,,---,0.00,VWS V14.01,2013-09-03 05:14:00,
2013-09-03 00:19:00,67.5,61.5,29.94,NE,40,0.0,2.0,81,0.00,,---,0.00,VWS V14.01,2013-09-03 05:19:00,
2013-09-03 00:24:00,67.4,61.7,29.95,NE,40,0.0,2.0,82,0.00,,---,0.00,VWS V14.01,2013-09-03 05:24:00,
2013-09-03 00:29:00,67.4,61.7,29.95,NE,40,0.0,0.0,82,0.00,,---,0.00,VWS V14.01,2013-09-03 05:29:00,
2013-09-03 00:34:00,67.2,61.2,29.95,NE,40,0.0,1.0,81,0.00,,---,0.00,VWS V14.01,2013-09-03 05:34:00,
2013-09-03 00:39:00,67.1,61.1,29.95,NE,40,0.0,1.0,81,0.00,,---,0.00,VWS V14.01,2013-09-03 05:39:00,
2013-09-03 00:44:00,67.0,61.3,29.95,NE,40,0.0,1.0,82,0.00,,---,0.00,VWS V14.01,2013-09-03 05:44:00,
2013-09-03 00:49:00,66.9,61.2,29.95,NE,40,0.0,1.0,82,0.00,,---,0.00,VWS V14.01,2013-09-03 05:49:00,
2013-09-03 00:54:00,66.8,61.5,29.95,NE,40,0.0,1.0,83,0.00,,---,0.00,VWS V14.01,2013-09-03 05:54:00,
2013-09-03 00:59:00,66.7,61.4,29.95,NE,40,0.0,0.0,83,0.00,,---,0.00,VWS V14.01,2013-09-03 05:59:00,
2013-09-03 01:04:00,66.6,61.3,29.95,NE,40,0.0,1.0,83,0.00,,---,0.00,VWS V14.01,2013-09-03 06:04:00,
2013-09-03 01:09:00,66.4,61.1,29.96,NE,40,0.0,1.0,83,0.00,,---,0.00,VWS V14.01,2013-09-03 06:09:00,
2013-09-03 01:15:00,66.3,61.0,29.96,NE,40,0.0,1.0,83,0.00,,---,0.00,VWS V14.01,2013-09-03 06:15:00,
2013-09-03 01:20:00,66.1,61.1,29.95,NE,40,0.0,1.0,84,0.00,,---,0.00,VWS V14.01,2013-09-03 06:20:00,
2013-09-03 01:25:00,66.0,61.0,29.95,NE,40,0.0,1.0,84,0.00,,---,0.00,VWS V14.01,2013-09-03 06:25:00,
2013-09-03 01:30:00,65.9,60.6,29.95,NE,40,0.0,0.0,83,0.00,,---,0.00,VWS V14.01,2013-09-03 06:30:00,
2013-09-03 01:35:00,65.8,60.5,29.95,NE,40,0.0,1.0,83,0.00,,---,0.00,VWS V14.01,2013-09-03 06:35:00,
2013-09-03 01:40:00,65.7,60.4,29.95,NE,40,0.0,1.0,83,0.00,,---,0.00,VWS V14.01,2013-09-03 06:40:00,
2013-09-03 01:45:00,65.7,60.4,29.95,NE,40,1.0,1.0,83,0.00,,---,0.00,VWS V14.01,2013-09-03 06:45:00,
2013-09-03 01:50:00,65.7,60.7,29.95,North,5,2.0,2.0,84,0.00,,---,0.00,VWS V14.01,2013-09-03 06:50:00,
2013-09-03 01:55:00,65.7,60.1,29.95,NE,36,2.0,2.0,82,0.00,,---,0.00,VWS V14.01,2013-09-03 06:55:00,
2013-09-03 02:00:00,65.7,59.7,29.95,NE,36,0.0,0.0,81,0.00,,---,0.00,VWS V14.01,2013-09-03 07:00:00,
2013-09-03 02:05:00,65.8,60.5,29.96,NE,36,0.0,0.0,83,0.00,,---,0.00,VWS V14.01,2013-09-03 07:05:00,
2013-09-03 02:10:00,65.8,60.2,29.96,NE,36,0.0,1.0,82,0.00,,---,0.00,VWS V14.01,2013-09-03 07:10:00,
2013-09-03 02:15:00,65.6,59.6,29.96,NE,36,0.0,1.0,81,0.00,,---,0.00,VWS V14.01,2013-09-03 07:15:00,
2013-09-03 02:20:00,65.5,59.5,29.96,NE,36,0.0,1.0,81,0.00,,---,0.00,VWS V14.01,2013-09-03 07:20:00,
2013-09-03 02:25:00,65.4,59.8,29.96,NE,36,0.0,1.0,82,0.00,,---,0.00,VWS V14.01,2013-09-03 07:25:00,
2013-09-03 02:30:00,65.2,59.9,29.97,NE,36,0.0,0.0,83,0.00,,---,0.00,VWS V14.01,2013-09-03 07:30:00,
2013-09-03 02:35:00,65.0,60.0,29.97,NE,36,0.0,0.0,84,0.00,,---,0.00,VWS V14.01,2013-09-03 07:35:00,
2013-09-03 02:40:00,64.6,59.7,29.97,NE,36,0.0,0.0,84,0.00,,---,0.00,VWS V14.01,2013-09-03 07:40:00,
2013-09-03 02:45:00,64.3,59.4,29.97,NE,36,0.0,0.0,84,0.00,,---,0.00,VWS V14.01,2013-09-03 07:45:00,
2013-09-03 02:51:00,64.1,59.2,29.97,NE,36,0.0,0.0,84,0.00,,---,0.00,VWS V14.01,2013-09-03 07:51:00,
2013-09-03 02:56:00,63.9,59.3,29.97,NE,36,0.0,0.0,85,0.00,,---,0.00,VWS V14.01,2013-09-03 07:56:00,
2013-09-03 03:01:00,63.7,59.1,29.97,NE,36,0.0,0.0,85,0.00,,---,0.00,VWS V14.01,2013-09-03 08:01:00,
2013-09-03 03:06:00,63.5,58.9,29.97,NE,36,0.0,0.0,85,0.00,,---,0.00,VWS V14.01,2013-09-03 08:06:00,
2013-09-03 03:11:00,63.2,58.6,29.97,NE,36,0.0,0.0,85,0.00,,---,0.00,VWS V14.01,2013-09-03 08:11:00,
2013-09-03 03:16:00,63.0,58.8,29.97,NE,36,0.0,0.0,86,0.00,,---,0.00,VWS V14.01,2013-09-03 08:16:00,
2013-09-03 03:21:00,62.8,58.6,29.97,NE,36,0.0,0.0,86,0.00,,---,0.00,VWS V14.01,2013-09-03 08:21:00,
2013-09-03 03:26:00,62.5,58.3,29.97,NE,36,0.0,0.0,86,0.00,,---,0.00,VWS V14.01,2013-09-03 08:26:00,
2013-09-03 03:31:00,62.4,58.2,29.97,NE,36,0.0,0.0,86,0.00,,---,0.00,VWS V14.01,2013-09-03 08:31:00,
2013-09-03 03:36:00,62.2,58.0,29.98,NE,36,0.0,0.0,86,0.00,,---,0.00,VWS V14.01,2013-09-03 08:36:00,
2013-09-03 03:41:00,62.0,58.1,29.98,NE,36,0.0,0.0,87,0.00,,---,0.00,VWS V14.01,2013-09-03 08:41:00,
2013-09-03 03:46:00,61.7,57.8,29.98,NE,36,0.0,0.0,87,0.00,,---,0.00,VWS V14.01,2013-09-03 08:46:00,
2013-09-03 03:52:00,61.4,57.5,29.98,NE,36,0.0,0.0,87,0.00,,---,0.00,VWS V14.01,2013-09-03 08:52:00,
2013-09-03 03:56:00,61.2,57.6,29.98,NE,36,0.0,0.0,88,0.00,,---,0.00,VWS V14.01,2013-09-03 08:56:00,
2013-09-03 04:02:00,61.1,57.5,29.98,NE,36,0.0,0.0,88,0.00,,---,0.00,VWS V14.01,2013-09-03 09:02:00,
2013-09-03 04:07:00,60.9,57.6,29.98,NE,36,0.0,0.0,89,0.00,,---,0.00,VWS V14.01,2013-09-03 09:07:00,
2013-09-03 04:12:00,60.7,57.4,29.98,NE,36,0.0,0.0,89,0.00,,---,0.00,VWS V14.01,2013-09-03 09:12:00,
2013-09-03 04:17:00,60.5,57.2,29.98,NE,36,0.0,0.0,89,0.00,,---,0.00,VWS V14.01,2013-09-03 09:17:00,
2013-09-03 04:22:00,60.4,57.2,29.98,NE,36,0.0,0.0,89,0.00,,---,0.00,VWS V14.01,2013-09-03 09:22:00,
2013-09-03 04:27:00,60.2,57.0,29.98,NE,36,0.0,0.0,89,0.00,,---,0.00,VWS V14.01,2013-09-03 09:27:00,
2013-09-03 04:32:00,60.1,56.8,29.98,NE,36,0.0,0.0,89,0.00,,---,0.00,VWS V14.01,2013-09-03 09:32:00,
2013-09-03 04:37:00,60.1,57.2,29.98,NE,36,0.0,0.0,90,0.00,,---,0.00,VWS V14.01,2013-09-03 09:37:00,
2013-09-03 04:42:00,60.0,57.1,29.98,NE,36,0.0,0.0,90,0.00,,---,0.00,VWS V14.01,2013-09-03 09:42:00,
2013-09-03 04:47:00,59.8,56.9,29.98,NE,36,0.0,0.0,90,0.00,,---,0.00,VWS V14.01,2013-09-03 09:47:00,
2013-09-03 04:52:00,59.7,56.8,29.98,NE,36,0.0,0.0,90,0.00,,---,0.00,VWS V14.01,2013-09-03 09:52:00,
2013-09-03 04:57:00,59.6,56.7,29.99,NE,36,0.0,0.0,90,0.00,,---,0.00,VWS V14.01,2013-09-03 09:57:00,
2013-09-03 05:02:00,59.5,56.6,29.99,NE,36,0.0,0.0,90,0.00,,---,0.00,VWS V14.01,2013-09-03 10:02:00,
2013-09-03 05:07:00,59.4,56.8,29.99,NE,36,0.0,0.0,91,0.00,,---,0.00,VWS V14.01,2013-09-03 10:07:00,
2013-09-03 05:12:00,59.3,56.7,29.99,NE,36,0.0,0.0,91,0.00,,---,0.00,VWS V14.01,2013-09-03 10:12:00,
2013-09-03 05:17:00,59.2,56.6,29.99,NE,36,0.0,0.0,91,0.00,,---,0.00,VWS V14.01,2013-09-03 10:17:00,
2013-09-03 05:22:00,59.1,56.5,29.99,NE,36,0.0,0.0,91,0.00,,---,0.00,VWS V14.01,2013-09-03 10:22:00,
2013-09-03 05:27:00,59.1,56.5,30.00,NE,36,0.0,0.0,91,0.00,,---,0.00,VWS V14.01,2013-09-03 10:27:00,
2013-09-03 05:32:00,59.0,56.4,30.00,NE,36,0.0,0.0,91,0.00,,---,0.00,VWS V14.01,2013-09-03 10:32:00,
2013-09-03 05:37:00,58.9,56.3,30.00,NE,36,0.0,0.0,91,0.00,,---,0.00,VWS V14.01,2013-09-03 10:37:00,
2013-09-03 05:42:00,58.8,56.2,30.01,NE,36,0.0,0.0,91,0.00,,---,0.00,VWS V14.01,2013-09-03 10:42:00,
2013-09-03 05:47:00,58.7,56.1,30.01,NE,36,0.0,0.0,91,0.00,,---,0.00,VWS V14.01,2013-09-03 10:47:00,
2013-09-03 05:52:00,58.6,56.0,30.01,NE,36,0.0,0.0,91,0.00,,---,0.00,VWS V14.01,2013-09-03 10:52:00,
2013-09-03 05:57:00,58.6,56.3,30.01,NE,36,0.0,0.0,92,0.00,,---,0.00,VWS V14.01,2013-09-03 10:57:00,
2013-09-03 06:02:00,58.5,56.2,30.01,NE,36,0.0,0.0,92,0.00,,---,0.00,VWS V14.01,2013-09-03 11:02:00,
2013-09-03 06:07:00,58.5,56.2,30.01,NE,36,0.0,1.0,92,0.00,,---,0.00,VWS V14.01,2013-09-03 11:07:00,
2013-09-03 06:12:00,58.5,56.2,30.01,NE,36,0.0,1.0,92,0.00,,---,0.00,VWS V14.01,2013-09-03 11:12:00,
2013-09-03 06:17:00,58.7,56.7,30.01,NE,36,0.0,2.0,93,0.00,,---,0.00,VWS V14.01,2013-09-03 11:17:00,
2013-09-03 06:22:00,59.0,56.7,30.01,NNE,12,0.0,3.0,92,0.00,,---,0.00,VWS V14.01,2013-09-03 11:22:00,
2013-09-03 06:27:00,59.2,56.9,30.02,NNE,12,0.0,0.0,92,0.00,,---,0.00,VWS V14.01,2013-09-03 11:27:00,
2013-09-03 06:32:00,59.4,57.1,30.02,NNE,12,0.0,1.0,92,0.00,,---,0.00,VWS V14.01,2013-09-03 11:32:00,
2013-09-03 06:37:00,59.6,57.3,30.02,NNE,29,0.0,4.0,92,0.00,,---,0.00,VWS V14.01,2013-09-03 11:37:00,
2013-09-03 06:42:00,59.8,57.2,30.02,NNW,329,0.0,4.0,91,0.00,,---,0.00,VWS V14.01,2013-09-03 11:42:00,
2013-09-03 06:47:00,59.9,57.3,30.02,North,11,0.0,4.0,91,0.00,,---,0.00,VWS V14.01,2013-09-03 11:47:00,
2013-09-03 06:52:00,60.0,57.4,30.02,North,11,0.0,4.0,91,0.00,,---,0.00,VWS V14.01,2013-09-03 11:52:00,
2013-09-03 06:58:00,60.1,57.5,30.02,North,5,0.0,4.0,91,0.00,,---,0.00,VWS V14.01,2013-09-03 11:58:00,
2013-09-03 07:03:00,60.1,57.2,30.02,North,5,0.0,0.0,90,0.00,,---,0.00,VWS V14.01,2013-09-03 12:03:00,
2013-09-03 07:08:00,60.1,57.5,30.02,North,5,0.0,2.0,91,0.00,,---,0.00,VWS V14.01,2013-09-03 12:08:00,
2013-09-03 07:13:00,60.1,57.5,30.02,North,5,0.0,2.0,91,0.00,,---,0.00,VWS V14.01,2013-09-03 12:13:00,
2013-09-03 07:18:00,60.2,57.6,30.03,North,5,0.0,2.0,91,0.00,,---,0.00,VWS V14.01,2013-09-03 12:18:00,
2013-09-03 07:23:00,60.3,57.4,30.03,North,5,0.0,2.0,90,0.00,,---,0.00,VWS V14.01,2013-09-03 12:23:00,
2013-09-03 07:28:00,60.5,57.6,30.03,North,5,0.0,0.0,90,0.00,,---,0.00,VWS V14.01,2013-09-03 12:28:00,
2013-09-03 07:33:00,60.7,57.8,30.03,North,360,0.0,1.0,90,0.00,,---,0.00,VWS V14.01,2013-09-03 12:33:00,
2013-09-03 07:38:00,61.0,57.7,30.03,North,360,0.0,1.0,89,0.00,,---,0.00,VWS V14.01,2013-09-03 12:38:00,
2013-09-03 07:43:00,61.3,57.7,30.03,North,360,0.0,2.0,88,0.00,,---,0.00,VWS V14.01,2013-09-03 12:43:00,
2013-09-03 07:48:00,61.6,58.0,30.03,NNE,28,0.0,2.0,88,0.00,,---,0.00,VWS V14.01,2013-09-03 12:48:00,
2013-09-03 07:53:00,62.0,58.1,30.03,NNE,28,0.0,2.0,87,0.00,,---,0.00,VWS V14.01,2013-09-03 12:53:00,
2013-09-03 07:58:00,62.3,58.4,30.03,NNE,28,0.0,0.0,87,0.00,,---,0.00,VWS V14.01,2013-09-03 12:58:00,
2013-09-03 08:03:00,62.6,58.4,30.03,NNE,28,0.0,1.0,86,0.00,,---,0.00,VWS V14.01,2013-09-03 13:03:00,
2013-09-03 08:08:00,62.9,58.7,30.04,NNE,13,0.0,4.0,86,0.00,,---,0.00,VWS V14.01,2013-09-03 13:08:00,
2013-09-03 08:13:00,63.4,58.8,30.04,NE,34,0.0,4.0,85,0.00,,---,0.00,VWS V14.01,2013-09-03 13:13:00,
2013-09-03 08:18:00,63.8,58.9,30.04,North,355,1.0,4.0,84,0.00,,---,0.00,VWS V14.01,2013-09-03 13:18:00,
2013-09-03 08:23:00,64.0,59.1,30.04,NNE,22,2.0,7.0,84,0.00,,---,0.00,VWS V14.01,2013-09-03 13:23:00,
2013-09-03 08:28:00,64.2,59.3,30.04,NE,41,0.0,2.0,84,0.00,,---,0.00,VWS V14.01,2013-09-03 13:28:00,
2013-09-03 08:33:00,64.4,59.5,30.04,North,360,1.0,3.0,84,0.00,,---,0.00,VWS V14.01,2013-09-03 13:33:00,
2013-09-03 08:38:00,64.7,59.8,30.04,North,360,0.0,3.0,84,0.00,,---,0.00,VWS V14.01,2013-09-03 13:38:00,
2013-09-03 08:43:00,65.0,59.7,30.04,NNE,28,1.0,3.0,83,0.00,,---,0.00,VWS V14.01,2013-09-03 13:43:00,
2013-09-03 08:49:00,65.4,60.1,30.04,North,5,0.0,3.0,83,0.00,,---,0.00,VWS V14.01,2013-09-03 13:49:00,
2013-09-03 08:54:00,65.7,60.1,30.05,North,5,0.0,3.0,82,0.00,,---,0.00,VWS V14.01,2013-09-03 13:54:00,
2013-09-03 08:59:00,66.1,60.1,30.05,NNE,13,3.0,5.0,81,0.00,,---,0.00,VWS V14.01,2013-09-03 13:59:00,
2013-09-03 09:04:00,66.5,60.5,30.05,NNE,16,0.0,5.0,81,0.00,,---,0.00,VWS V14.01,2013-09-03 14:04:00,
2013-09-03 09:09:00,67.2,60.8,30.05,NNE,14,0.0,5.0,80,0.00,,---,0.00,VWS V14.01,2013-09-03 14:09:00,
2013-09-03 09:14:00,67.8,61.1,30.05,West,263,0.0,5.0,79,0.00,,---,0.00,VWS V14.01,2013-09-03 14:14:00,
2013-09-03 09:19:00,68.3,61.2,30.05,WSW,250,0.0,5.0,78,0.00,,---,0.00,VWS V14.01,2013-09-03 14:19:00,
2013-09-03 09:24:00,68.8,61.3,30.05,NNW,332,0.0,5.0,77,0.00,,---,0.00,VWS V14.01,2013-09-03 14:24:00,
2013-09-03 09:29:00,69.3,61.0,30.05,North,355,0.0,3.0,75,0.00,,---,0.00,VWS V14.01,2013-09-03 14:29:00,
2013-09-03 09:34:00,69.7,61.0,30.05,NE,40,0.0,4.0,74,0.00,,---,0.00,VWS V14.01,2013-09-03 14:34:00,
2013-09-03 09:39:00,70.1,61.4,30.05,NNW,345,1.0,4.0,74,0.00,,---,0.00,VWS V14.01,2013-09-03 14:39:00,
2013-09-03 09:44:00,70.4,61.7,30.05,North,360,0.0,4.0,74,0.00,,---,0.00,VWS V14.01,2013-09-03 14:44:00,
2013-09-03 09:49:00,71.0,61.5,30.06,NNW,339,0.0,4.0,72,0.00,,---,0.00,VWS V14.01,2013-09-03 14:49:00,
2013-09-03 09:54:00,71.5,61.2,30.06,North,355,0.0,4.0,70,0.00,,---,0.00,VWS V14.01,2013-09-03 14:54:00,
2013-09-03 09:59:00,72.0,61.3,30.06,North,360,0.0,0.0,69,0.00,,---,0.00,VWS V14.01,2013-09-03 14:59:00,
2013-09-03 10:04:00,72.5,61.3,30.06,North,5,3.0,5.0,68,0.00,,---,0.00,VWS V14.01,2013-09-03 15:04:00,
2013-09-03 10:09:00,72.9,60.5,30.06,NW,325,2.0,5.0,65,0.00,,---,0.00,VWS V14.01,2013-09-03 15:09:00,
2013-09-03 10:14:00,73.2,60.7,30.06,NNW,331,1.0,5.0,65,0.00,,---,0.00,VWS V14.01,2013-09-03 15:14:00,
2013-09-03 10:19:00,73.7,61.2,30.06,NE,34,0.0,5.0,65,0.00,,---,0.00,VWS V14.01,2013-09-03 15:19:00,
2013-09-03 10:24:00,74.2,59.4,30.06,North,351,0.0,6.0,60,0.00,,---,0.00,VWS V14.01,2013-09-03 15:24:00,
2013-09-03 10:29:00,74.4,59.2,30.06,NNW,329,0.0,3.0,59,0.00,,---,0.00,VWS V14.01,2013-09-03 15:29:00,
2013-09-03 10:34:00,74.8,60.0,30.06,NNW,336,0.0,3.0,60,0.00,,---,0.00,VWS V14.01,2013-09-03 15:34:00,
2013-09-03 10:39:00,74.9,59.1,30.06,NNW,333,2.0,3.0,58,0.00,,---,0.00,VWS V14.01,2013-09-03 15:39:00,
2013-09-03 10:44:00,75.1,59.3,30.06,WNW,300,0.0,5.0,58,0.00,,---,0.00,VWS V14.01,2013-09-03 15:44:00,
2013-09-03 10:49:00,75.3,60.0,30.06,NW,319,3.0,7.0,59,0.00,,---,0.00,VWS V14.01,2013-09-03 15:49:00,
2013-09-03 10:54:00,75.2,60.4,30.06,NW,313,4.0,7.0,60,0.00,,---,0.00,VWS V14.01,2013-09-03 15:54:00,
2013-09-03 10:59:00,75.4,60.1,30.06,NE,39,7.0,7.0,59,0.00,,---,0.00,VWS V14.01,2013-09-03 15:59:00,
2013-09-03 11:05:00,75.5,59.7,30.06,West,274,0.0,8.0,58,0.00,,---,0.00,VWS V14.01,2013-09-03 16:05:00,
2013-09-03 11:10:00,75.6,59.3,30.06,North,5,3.0,8.0,57,0.00,,---,0.00,VWS V14.01,2013-09-03 16:10:00,
2013-09-03 11:15:00,75.6,60.3,30.06,NW,323,1.0,8.0,59,0.00,,---,0.00,VWS V14.01,2013-09-03 16:15:00,
2013-09-03 11:20:00,75.6,59.3,30.06,ENE,67,1.0,8.0,57,0.00,,---,0.00,VWS V14.01,2013-09-03 16:20:00,
2013-09-03 11:25:00,75.9,60.1,30.06,North,360,2.0,8.0,58,0.00,,---,0.00,VWS V14.01,2013-09-03 16:25:00,
2013-09-03 11:30:00,76.3,60.5,30.06,NNW,331,3.0,6.0,58,0.00,,---,0.00,VWS V14.01,2013-09-03 16:30:00,
2013-09-03 11:35:00,76.6,59.2,30.06,NNE,32,0.0,6.0,55,0.00,,---,0.00,VWS V14.01,2013-09-03 16:35:00,
2013-09-03 11:40:00,76.4,58.5,30.06,NW,311,2.0,6.0,54,0.00,,---,0.00,VWS V14.01,2013-09-03 16:40:00,
2013-09-03 11:45:00,76.5,59.2,30.06,North,360,3.0,6.0,55,0.00,,---,0.00,VWS V14.01,2013-09-03 16:45:00,
2013-09-03 11:50:00,76.6,58.7,30.06,NNE,12,0.0,6.0,54,0.00,,---,0.00,VWS V14.01,2013-09-03 16:50:00,
2013-09-03 11:55:00,76.8,58.9,30.05,NNE,15,6.0,6.0,54,0.00,,---,0.00,VWS V14.01,2013-09-03 16:55:00,
2013-09-03 12:00:00,77.0,58.6,30.06,ENE,61,0.0,3.0,53,0.00,,---,0.00,VWS V14.01,2013-09-03 17:00:00,
2013-09-03 12:05:00,77.0,59.1,30.05,ENE,75,1.0,3.0,54,0.00,,---,0.00,VWS V14.01,2013-09-03 17:05:00,
2013-09-03 12:10:00,77.6,59.1,30.05,NNE,32,2.0,4.0,53,0.00,,---,0.00,VWS V14.01,2013-09-03 17:10:00,
2013-09-03 12:15:00,77.9,59.4,30.05,NNE,28,0.0,6.0,53,0.00,,---,0.00,VWS V14.01,2013-09-03 17:15:00,
2013-09-03 12:20:00,78.1,59.1,30.05,North,5,4.0,6.0,52,0.00,,---,0.00,VWS V14.01,2013-09-03 17:20:00,
2013-09-03 12:25:00,78.2,58.6,30.05,NE,38,1.0,6.0,51,0.00,,---,0.00,VWS V14.01,2013-09-03 17:25:00,
2013-09-03 12:30:00,78.4,58.2,30.05,NE,49,2.0,3.0,50,0.00,,---,0.00,VWS V14.01,2013-09-03 17:30:00,
2013-09-03 12:35:00,78.6,57.3,30.05,NNE,26,4.0,6.0,48,0.00,,---,0.00,VWS V14.01,2013-09-03 17:35:00,
2013-09-03 12:40:00,78.6,58.4,30.04,NNE,26,3.0,6.0,50,0.00,,---,0.00,VWS V14.01,2013-09-03 17:40:00,
2013-09-03 12:45:00,78.6,58.4,30.04,NNW,339,0.0,6.0,50,0.00,,---,0.00,VWS V14.01,2013-09-03 17:45:00,
2013-09-03 12:50:00,78.5,58.9,30.04,North,11,1.0,6.0,51,0.00,,---,0.00,VWS V14.01,2013-09-03 17:50:00,
2013-09-03 12:55:00,78.8,56.9,30.03,NE,38,0.0,6.0,47,0.00,,---,0.00,VWS V14.01,2013-09-03 17:55:00,
2013-09-03 13:00:00,79.3,57.3,30.03,SW,227,1.0,6.0,47,0.00,,---,0.00,VWS V14.01,2013-09-03 18:00:00,
2013-09-03 13:05:00,79.7,57.1,30.03,ENE,66,2.0,6.0,46,0.00,,---,0.00,VWS V14.01,2013-09-03 18:05:00,
2013-09-03 13:10:00,79.6,58.2,30.03,SSW,196,0.0,6.0,48,0.00,,---,0.00,VWS V14.01,2013-09-03 18:10:00,
2013-09-03 13:15:00,79.8,57.2,30.03,SSE,157,0.0,6.0,46,0.00,,---,0.00,VWS V14.01,2013-09-03 18:15:00,
2013-09-03 13:20:00,80.2,56.3,30.03,NNW,331,0.0,6.0,44,0.00,,---,0.00,VWS V14.01,2013-09-03 18:20:00,
2013-09-03 13:25:00,80.5,59.0,30.03,SW,229,1.0,6.0,48,0.00,,---,0.00,VWS V14.01,2013-09-03 18:25:00,
2013-09-03 13:30:00,80.3,57.0,30.03,North,360,6.0,6.0,45,0.00,,---,0.00,VWS V14.01,2013-09-03 18:30:00,
2013-09-03 13:35:00,80.3,57.0,30.02,NNW,345,1.0,6.0,45,0.00,,---,0.00,VWS V14.01,2013-09-03 18:35:00,
2013-09-03 13:40:00,80.3,57.7,30.03,WSW,253,1.0,6.0,46,0.00,,---,0.00,VWS V14.01,2013-09-03 18:40:00,
2013-09-03 13:46:00,80.4,56.5,30.02,NE,45,0.0,6.0,44,0.00,,---,0.00,VWS V14.01,2013-09-03 18:46:00,
2013-09-03 13:51:00,80.5,54.7,30.02,SSW,192,1.0,6.0,41,0.00,,---,0.00,VWS V14.01,2013-09-03 18:51:00,
2013-09-03 13:56:00,80.7,57.4,30.03,NNW,330,1.0,6.0,45,0.00,,---,0.00,VWS V14.01,2013-09-03 18:56:00,
2013-09-03 14:01:00,81.1,59.6,30.02,NE,44,2.0,2.0,48,0.00,,---,0.00,VWS V14.01,2013-09-03 19:01:00,
2013-09-03 14:06:00,81.2,59.1,30.02,WSW,244,2.0,4.0,47,0.00,,---,0.00,VWS V14.01,2013-09-03 19:06:00,
2013-09-03 14:11:00,81.5,58.1,30.02,NW,304,0.0,4.0,45,0.00,,---,0.00,VWS V14.01,2013-09-03 19:11:00,
2013-09-03 14:16:00,81.8,58.4,30.02,NE,41,4.0,4.0,45,0.00,,---,0.00,VWS V14.01,2013-09-03 19:16:00,
2013-09-03 14:21:00,81.6,57.6,30.02,NNW,332,0.0,6.0,44,0.00,,---,0.00,VWS V14.01,2013-09-03 19:21:00,
2013-09-03 14:26:00,81.7,58.9,30.02,NE,51,0.0,6.0,46,0.00,,---,0.00,VWS V14.01,2013-09-03 19:26:00,
2013-09-03 14:31:00,81.7,58.9,30.02,WNW,294,0.0,4.0,46,0.00,,---,0.00,VWS V14.01,2013-09-03 19:31:00,
2013-09-03 14:36:00,81.9,59.1,30.02,NNW,330,0.0,4.0,46,0.00,,---,0.00,VWS V14.01,2013-09-03 19:36:00,
2013-09-03 14:41:00,82.1,58.7,30.01,West,263,0.0,5.0,45,0.00,,---,0.00,VWS V14.01,2013-09-03 19:41:00,
2013-09-03 14:46:00,82.3,58.2,30.01,NNE,30,2.0,5.0,44,0.00,,---,0.00,VWS V14.01,2013-09-03 19:46:00,
2013-09-03 14:51:00,82.4,57.7,30.01,North,5,0.0,5.0,43,0.00,,---,0.00,VWS V14.01,2013-09-03 19:51:00,
2013-09-03 14:56:00,82.7,58.6,30.01,ENE,72,3.0,5.0,44,0.00,,---,0.00,VWS V14.01,2013-09-03 19:56:00,
2013-09-03 15:01:00,82.7,58.0,30.01,WNW,296,0.0,7.0,43,0.00,,---,0.00,VWS V14.01,2013-09-03 20:01:00,
2013-09-03 15:06:00,82.8,57.4,30.01,NE,45,1.0,7.0,42,0.00,,---,0.00,VWS V14.01,2013-09-03 20:06:00,
2013-09-03 15:11:00,82.8,57.4,30.01,North,11,0.0,7.0,42,0.00,,---,0.00,VWS V14.01,2013-09-03 20:11:00,
2013-09-03 15:16:00,82.9,57.5,30.00,NE,46,1.0,7.0,42,0.00,,---,0.00,VWS V14.01,2013-09-03 20:16:00,
2013-09-03 15:21:00,83.0,55.5,30.00,NNE,18,1.0,7.0,39,0.00,,---,0.00,VWS V14.01,2013-09-03 20:21:00,
2013-09-03 15:26:00,83.1,56.3,30.00,ENE,76,2.0,7.0,40,0.00,,---,0.00,VWS V14.01,2013-09-03 20:26:00,
2013-09-03 15:31:00,83.0,56.9,30.00,NNW,333,5.0,5.0,41,0.00,,---,0.00,VWS V14.01,2013-09-03 20:31:00,
2013-09-03 15:36:00,82.8,58.0,30.00,NW,313,0.0,5.0,43,0.00,,---,0.00,VWS V14.01,2013-09-03 20:36:00,
2013-09-03 15:41:00,82.9,58.1,30.00,NNW,329,1.0,5.0,43,0.00,,---,0.00,VWS V14.01,2013-09-03 20:41:00,
2013-09-03 15:46:00,82.8,59.3,30.00,ENE,71,2.0,6.0,45,0.00,,---,0.00,VWS V14.01,2013-09-03 20:46:00,
2013-09-03 15:51:00,82.8,59.3,30.00,NNE,27,0.0,6.0,45,0.00,,---,0.00,VWS V14.01,2013-09-03 20:51:00,
2013-09-03 15:56:00,82.9,58.1,29.99,ENE,62,0.0,8.0,43,0.00,,---,0.00,VWS V14.01,2013-09-03 20:56:00,
2013-09-03 16:01:00,83.1,59.0,29.99,ENE,59,2.0,3.0,44,0.00,,---,0.00,VWS V14.01,2013-09-03 21:01:00,
2013-09-03 16:06:00,83.3,58.5,29.99,NNE,32,5.0,5.0,43,0.00,,---,0.00,VWS V14.01,2013-09-03 21:06:00,
2013-09-03 16:11:00,83.6,58.1,29.99,ENE,78,3.0,5.0,42,0.00,,---,0.00,VWS V14.01,2013-09-03 21:11:00,
2013-09-03 16:17:00,83.4,57.9,29.99,NE,52,0.0,5.0,42,0.00,,---,0.00,VWS V14.01,2013-09-03 21:17:00,
2013-09-03 16:22:00,83.3,57.8,29.99,NE,39,0.0,5.0,42,0.00,,---,0.00,VWS V14.01,2013-09-03 21:22:00,
2013-09-03 16:27:00,83.4,58.6,29.99,North,5,2.0,5.0,43,0.00,,---,0.00,VWS V14.01,2013-09-03 21:27:00,
2013-09-03 16:32:00,83.4,57.9,30.00,NE,38,0.0,5.0,42,0.00,,---,0.00,VWS V14.01,2013-09-03 21:32:00,
2013-09-03 16:37:00,83.4,57.9,30.00,NE,36,2.0,5.0,42,0.00,,---,0.00,VWS V14.01,2013-09-03 21:37:00,
2013-09-03 16:42:00,83.3,57.8,30.00,NNE,17,1.0,6.0,42,0.00,,---,0.00,VWS V14.01,2013-09-03 21:42:00,
2013-09-03 16:47:00,83.2,57.8,29.99,NNE,24,3.0,6.0,42,0.00,,---,0.00,VWS V14.01,2013-09-03 21:47:00,
2013-09-03 16:52:00,83.0,57.6,29.99,NNW,346,3.0,6.0,42,0.00,,---,0.00,VWS V14.01,2013-09-03 21:52:00,
2013-09-03 16:57:00,83.0,57.6,29.99,ENE,63,2.0,6.0,42,0.00,,---,0.00,VWS V14.01,2013-09-03 21:57:00,
2013-09-03 17:02:00,83.0,57.6,29.99,ENE,76,2.0,5.0,42,0.00,,---,0.00,VWS V14.01,2013-09-03 22:02:00,
2013-09-03 17:07:00,83.0,57.6,29.99,North,9,0.0,5.0,42,0.00,,---,0.00,VWS V14.01,2013-09-03 22:07:00,
2013-09-03 17:12:00,82.9,58.1,29.99,ENE,76,1.0,5.0,43,0.00,,---,0.00,VWS V14.01,2013-09-03 22:12:00,
2013-09-03 17:17:00,82.9,58.1,29.99,NNE,19,1.0,5.0,43,0.00,,---,0.00,VWS V14.01,2013-09-03 22:17:00,
2013-09-03 17:22:00,82.9,58.1,29.99,NE,36,1.0,5.0,43,0.00,,---,0.00,VWS V14.01,2013-09-03 22:22:00,
2013-09-03 17:27:00,83.0,58.9,29.98,NNE,13,1.0,5.0,44,0.00,,---,0.00,VWS V14.01,2013-09-03 22:27:00,
2013-09-03 17:32:00,83.1,57.0,29.98,NE,47,3.0,5.0,41,0.00,,---,0.00,VWS V14.01,2013-09-03 22:32:00,
2013-09-03 17:37:00,83.0,56.2,29.98,NNE,31,2.0,5.0,40,0.00,,---,0.00,VWS V14.01,2013-09-03 22:37:00,
2013-09-03 17:42:00,82.8,55.3,29.99,NNE,28,0.0,5.0,39,0.00,,---,0.00,VWS V14.01,2013-09-03 22:42:00,
2013-09-03 17:47:00,82.9,56.8,29.99,NE,51,1.0,5.0,41,0.00,,---,0.00,VWS V14.01,2013-09-03 22:47:00,
2013-09-03 17:52:00,82.8,58.7,29.99,NNW,344,0.0,5.0,44,0.00,,---,0.00,VWS V14.01,2013-09-03 22:52:00,
2013-09-03 17:57:00,82.6,58.5,29.99,NNE,13,0.0,1.0,44,0.00,,---,0.00,VWS V14.01,2013-09-03 22:57:00,
2013-09-03 18:02:00,82.3,58.2,29.99,NNW,344,0.0,5.0,44,0.00,,---,0.00,VWS V14.01,2013-09-03 23:02:00,
2013-09-03 18:07:00,82.1,58.7,29.99,North,5,3.0,5.0,45,0.00,,---,0.00,VWS V14.01,2013-09-03 23:07:00,
2013-09-03 18:12:00,81.9,57.9,29.99,NE,42,1.0,5.0,44,0.00,,---,0.00,VWS V14.01,2013-09-03 23:12:00,
2013-09-03 18:17:00,81.7,57.7,29.99,NNE,32,2.0,5.0,44,0.00,,---,0.00,VWS V14.01,2013-09-03 23:17:00,
2013-09-03 18:22:00,81.4,58.0,29.99,NNW,336,0.0,5.0,45,0.00,,---,0.00,VWS V14.01,2013-09-03 23:22:00,
2013-09-03 18:27:00,81.1,57.8,29.99,East,81,0.0,0.0,45,0.00,,---,0.00,VWS V14.01,2013-09-03 23:27:00,
2013-09-03 18:32:00,80.8,57.5,29.99,NE,45,0.0,1.0,45,0.00,,---,0.00,VWS V14.01,2013-09-03 23:32:00,
2013-09-03 18:37:00,80.5,57.8,29.99,NE,44,0.0,2.0,46,0.00,,---,0.00,VWS V14.01,2013-09-03 23:37:00,
2013-09-03 18:43:00,80.3,57.7,29.99,NE,44,0.0,2.0,46,0.00,,---,0.00,VWS V14.01,2013-09-03 23:43:00,
2013-09-03 18:48:00,80.1,58.1,29.99,NE,43,0.0,2.0,47,0.00,,---,0.00,VWS V14.01,2013-09-03 23:48:00,
2013-09-03 18:53:00,79.8,58.4,29.99,NE,43,0.0,2.0,48,0.00,,---,0.00,VWS V14.01,2013-09-03 23:53:00,
2013-09-03 18:58:00,79.6,58.2,29.99,NE,43,0.0,0.0,48,0.00,,---,0.00,VWS V14.01,2013-09-03 23:58:00,
2013-09-03 19:03:00,79.3,59.1,29.99,NE,43,0.0,0.0,50,0.00,,---,0.00,VWS V14.01,2013-09-04 00:03:00,
2013-09-03 19:08:00,79.1,59.4,29.99,NE,43,0.0,1.0,51,0.00,,---,0.00,VWS V14.01,2013-09-04 00:08:00,
2013-09-03 19:13:00,78.7,59.6,29.99,NE,43,0.0,1.0,52,0.00,,---,0.00,VWS V14.01,2013-09-04 00:13:00,
2013-09-03 19:18:00,78.3,59.8,29.99,NE,43,0.0,1.0,53,0.00,,---,0.00,VWS V14.01,2013-09-04 00:18:00,
2013-09-03 19:23:00,77.8,59.8,29.99,NE,43,0.0,1.0,54,0.00,,---,0.00,VWS V14.01,2013-09-04 00:23:00,
2013-09-03 19:28:00,77.3,58.8,29.99,NE,43,0.0,0.0,53,0.00,,---,0.00,VWS V14.01,2013-09-04 00:28:00,
2013-09-03 19:33:00,76.8,58.9,29.99,NE,43,0.0,0.0,54,0.00,,---,0.00,VWS V14.01,2013-09-04 00:33:00,
2013-09-03 19:38:00,76.4,59.1,29.99,NE,43,0.0,0.0,55,0.00,,---,0.00,VWS V14.01,2013-09-04 00:38:00,
2013-09-03 19:43:00,76.0,59.2,29.99,NE,43,0.0,0.0,56,0.00,,---,0.00,VWS V14.01,2013-09-04 00:43:00,
2013-09-03 19:48:00,75.5,58.7,29.99,NE,43,0.0,0.0,56,0.00,,---,0.00,VWS V14.01,2013-09-04 00:48:00,
2013-09-03 19:53:00,74.8,58.6,29.99,NE,43,0.0,0.0,57,0.00,,---,0.00,VWS V14.01,2013-09-04 00:53:00,
2013-09-03 19:58:00,74.3,58.1,30.00,NE,43,0.0,0.0,57,0.00,,---,0.00,VWS V14.01,2013-09-04 00:58:00,
2013-09-03 20:03:00,73.8,58.1,30.00,NE,43,0.0,0.0,58,0.00,,---,0.00,VWS V14.01,2013-09-04 01:03:00,
2013-09-03 20:08:00,73.4,59.2,30.00,NE,43,0.0,0.0,61,0.00,,---,0.00,VWS V14.01,2013-09-04 01:08:00,
2013-09-03 20:13:00,73.0,58.3,30.00,NE,43,0.0,0.0,60,0.00,,---,0.00,VWS V14.01,2013-09-04 01:13:00,
2013-09-03 20:18:00,72.7,58.5,30.00,NE,43,0.0,0.0,61,0.00,,---,0.00,VWS V14.01,2013-09-04 01:18:00,
2013-09-03 20:23:00,72.4,58.2,30.00,NE,43,0.0,0.0,61,0.00,,---,0.00,VWS V14.01,2013-09-04 01:23:00,
2013-09-03 20:28:00,72.1,58.4,30.00,NE,43,0.0,0.0,62,0.00,,---,0.00,VWS V14.01,2013-09-04 01:28:00,
2013-09-03 20:33:00,71.8,58.5,30.00,NE,43,0.0,0.0,63,0.00,,---,0.00,VWS V14.01,2013-09-04 01:33:00,
2013-09-03 20:38:00,71.5,58.3,30.00,NE,43,0.0,0.0,63,0.00,,---,0.00,VWS V14.01,2013-09-04 01:38:00,
2013-09-03 20:44:00,71.1,58.3,30.00,NE,43,0.0,0.0,64,0.00,,---,0.00,VWS V14.01,2013-09-04 01:44:00,
2013-09-03 20:49:00,70.7,58.4,30.01,NE,43,0.0,0.0,65,0.00,,---,0.00,VWS V14.01,2013-09-04 01:49:00,
2013-09-03 20:53:00,70.5,58.2,30.00,NE,43,0.0,0.0,65,0.00,,---,0.00,VWS V14.01,2013-09-04 01:53:00,
2013-09-03 20:59:00,70.2,58.3,30.01,NE,43,0.0,0.0,66,0.00,,---,0.00,VWS V14.01,2013-09-04 01:59:00,
2013-09-03 21:04:00,70.0,58.5,30.01,NE,43,0.0,0.0,67,0.00,,---,0.00,VWS V14.01,2013-09-04 02:04:00,
2013-09-03 21:09:00,69.8,58.4,30.01,NE,43,0.0,0.0,67,0.00,,---,0.00,VWS V14.01,2013-09-04 02:09:00,
2013-09-03 21:14:00,69.6,58.6,30.01,NE,43,0.0,0.0,68,0.00,,---,0.00,VWS V14.01,2013-09-04 02:14:00,
2013-09-03 21:19:00,69.5,58.5,30.01,NE,43,0.0,0.0,68,0.00,,---,0.00,VWS V14.01,2013-09-04 02:19:00,
2013-09-03 21:24:00,69.3,58.7,30.01,NE,43,0.0,0.0,69,0.00,,---,0.00,VWS V14.01,2013-09-04 02:24:00,
2013-09-03 21:29:00,69.2,59.0,30.01,NE,43,0.0,0.0,70,0.00,,---,0.00,VWS V14.01,2013-09-04 02:29:00,
2013-09-03 21:34:00,69.0,58.8,30.01,NE,43,0.0,0.0,70,0.00,,---,0.00,VWS V14.01,2013-09-04 02:34:00,
2013-09-03 21:39:00,68.8,59.0,30.01,NE,43,0.0,0.0,71,0.00,,---,0.00,VWS V14.01,2013-09-04 02:39:00,
2013-09-03 21:44:00,68.6,58.8,30.01,NE,43,0.0,0.0,71,0.00,,---,0.00,VWS V14.01,2013-09-04 02:44:00,
2013-09-03 21:49:00,68.4,59.0,30.01,NE,43,0.0,0.0,72,0.00,,---,0.00,VWS V14.01,2013-09-04 02:49:00,
2013-09-03 21:54:00,68.2,58.8,30.01,NE,43,0.0,0.0,72,0.00,,---,0.00,VWS V14.01,2013-09-04 02:54:00,
2013-09-03 21:59:00,68.0,59.0,30.02,NE,43,0.0,0.0,73,0.00,,---,0.00,VWS V14.01,2013-09-04 02:59:00,
2013-09-03 22:04:00,67.9,58.9,30.02,NE,43,0.0,0.0,73,0.00,,---,0.00,VWS V14.01,2013-09-04 03:04:00,
2013-09-03 22:09:00,67.7,59.1,30.02,NE,43,0.0,0.0,74,0.00,,---,0.00,VWS V14.01,2013-09-04 03:09:00,
2013-09-03 22:14:00,67.4,58.8,30.02,NE,44,0.0,0.0,74,0.00,,---,0.00,VWS V14.01,2013-09-04 03:14:00,
2013-09-03 22:19:00,67.1,58.9,30.03,NE,44,0.0,0.0,75,0.00,,---,0.00,VWS V14.01,2013-09-04 03:19:00,
2013-09-03 22:24:00,66.8,58.6,30.03,NE,43,0.0,0.0,75,0.00,,---,0.00,VWS V14.01,2013-09-04 03:24:00,
2013-09-03 22:29:00,66.4,58.6,30.03,NE,43,0.0,0.0,76,0.00,,---,0.00,VWS V14.01,2013-09-04 03:29:00,
2013-09-03 22:35:00,66.1,58.3,30.03,NE,43,0.0,0.0,76,0.00,,---,0.00,VWS V14.01,2013-09-04 03:35:00,
2013-09-03 22:40:00,65.8,58.4,30.03,NE,43,0.0,0.0,77,0.00,,---,0.00,VWS V14.01,2013-09-04 03:40:00,
2013-09-03 22:44:00,65.6,58.6,30.03,NE,43,0.0,0.0,78,0.00,,---,0.00,VWS V14.01,2013-09-04 03:44:00,
2013-09-03 22:50:00,65.4,58.4,30.04,NE,43,0.0,0.0,78,0.00,,---,0.00,VWS V14.01,2013-09-04 03:50:00,
2013-09-03 22:55:00,65.3,58.6,30.04,NE,43,0.0,0.0,79,0.00,,---,0.00,VWS V14.01,2013-09-04 03:55:00,
2013-09-03 23:00:00,65.2,58.5,30.04,NE,43,0.0,0.0,79,0.00,,---,0.00,VWS V14.01,2013-09-04 04:00:00,
2013-09-03 23:01:00,65.2,58.5,30.04,NE,43,0.0,0.0,79,0.00,,---,0.00,VWS V14.01,2013-09-04 04:01:00,
2013-09-03 23:02:00,65.1,58.4,30.04,NE,43,0.0,0.0,79,0.00,,---,0.00,VWS V14.01,2013-09-04 04:02:00,
2013-09-03 23:07:00,65.0,58.3,30.04,NE,43,0.0,0.0,79,0.00,,---,0.00,VWS V14.01,2013-09-04 04:07:00,
2013-09-03 23:12:00,64.9,58.2,30.04,NE,43,0.0,0.0,79,0.00,,---,0.00,VWS V14.01,2013-09-04 04:12:00,
2013-09-03 23:18:00,64.7,58.4,30.03,NE,43,0.0,0.0,80,0.00,,---,0.00,VWS V14.01,2013-09-04 04:18:00,
2013-09-03 23:23:00,64.6,58.3,30.04,NE,43,0.0,0.0,80,0.00,,---,0.00,VWS V14.01,2013-09-04 04:23:00,
2013-09-03 23:28:00,64.4,58.1,30.04,NE,43,0.0,0.0,80,0.00,,---,0.00,VWS V14.01,2013-09-04 04:28:00,
2013-09-03 23:33:00,64.3,58.3,30.04,NE,43,0.0,0.0,81,0.00,,---,0.00,VWS V14.01,2013-09-04 04:33:00,
2013-09-03 23:38:00,64.1,58.2,30.04,NE,43,0.0,0.0,81,0.00,,---,0.00,VWS V14.01,2013-09-04 04:38:00,
2013-09-03 23:43:00,64.0,58.4,30.04,NE,43,0.0,0.0,82,0.00,,---,0.00,VWS V14.01,2013-09-04 04:43:00,
2013-09-03 23:48:00,63.8,58.2,30.04,NE,43,0.0,0.0,82,0.00,,---,0.00,VWS V14.01,2013-09-04 04:48:00,
2013-09-03 23:53:00,63.7,58.1,30.05,NE,43,0.0,0.0,82,0.00,,---,0.00,VWS V14.01,2013-09-04 04:53:00,
2013-09-03 23:58:00,63.5,57.9,30.05,NE,43,0.0,0.0,82,0.00,,---,0.00,VWS V14.01,2013-09-04 04:58:00,